METEOR 2-17 DEB

Satellite information

Favourite Embed

Satellite Type and Status

DEBRISIN ORBIT

Key statistics

Satellite METEOR 2-17 DEB at a glance.

Uptime

13833

Days in orbit

Revolutions

≈ 14.1

Per day

Orbit

LEO

Low Earth Orbit

Inclination

82.5

Latest

Satellite identification and parameters

Extended collection of information and parameters for METEOR 2-17 DEB.

Object identification

Identified? True

Debris? True

Object name: METEOR 2-17 DEB

International designator: 1988-005F

Object number (NORAD): 28991

Object ID (CCSDS): 28991

Country: COMMONWEALTH OF INDEPENDENT STATES (CIS)

Current information (Y/N): Y

RCS size: SMALL

Orbital parameters

Period: 102.221 minutes

Inclination: 82.5225 deg

SMA: 7241.938 km

Apoapsis: 884.353 km

Periapsis: 843.253 km

RAAN: 27.8071 deg

Eccentricy: 0.00283762

Argument of periapsis: 120.5232 deg

Mean anomaly: 304.0606 deg

Mean motion: 14.08706581 rev/day

Mean motion (dot): 0.00002796 rev/day2

B* drag term: 0.0016090558 1/REarth

Two-line elements (TLE)

Creation date: Nov. 30, 2025, 5:58 p.m.

Reference frame: TEME

Reference center: EARTH

Epoch: Nov. 29, 2025, 11:45 a.m. UTC

TLE line 0: 0 METEOR 2-17 DEB

TLE line 1: 1 28991U 88005F 25333.48993149 .00002796 00000-0 16091-2 0 9996

TLE line 2: 2 28991 82.5225 27.8071 0028376 120.5232 304.0606 14.08706581 37820

Live tracking on map

Real-time ground track for satellite METEOR 2-17 DEB.

In-orbit conjunctions

A list of the most updated potential collisions computed for object METEOR 2-17 DEB.

Target Orbit TCA Probability of collision Miss distance Type
COSMOS 2227 LEO 2025-08-20 09:13:16 0.0001586195 210.0 (m) PAYLOAD
CZ-4B R/B SSO 2025-07-24 21:50:23 0.0002966107 60.0 (m) ROCKET BODY
IRIDIUM 33 DEB LEO 2024-09-27 10:48:34 0.0001801157 760.0 (m) DEBRIS

Associated space launch

Second generation soviet meteorological satellite

METEOR 2-17 DEB was lifted into orbit during the mission ‘Tsiklon-3 | Meteor-2 17’, on board a Tsiklon-3 space rocket.

The launch took place on Jan. 30, 1988, 10:59 a.m. from 32/1.

For more information about the launch, click the button.

Launch to space Tsiklon-3 | Meteor-2 17
Tsiklon-3 | Meteor-2 17

Agency: N/A

Status: Launch Successful

Launch date: Jan. 30, 1988, 10:59 a.m. UTC

Rocket: Tsiklon-3

Launch pad: 32/1

Location: Plesetsk Cosmodrome, Russian Federation

...

Latest news about this satellite

There are no fresh news available about this satellite. Check back as we update our databases every day.


Newsletter sign-up

Weekly statistics, charts and insights to help you stay on top of the space industry.